Wind_Speed
107 106 100 89 90 92 89 88 81 77 74 73 72 71 71 68 67 66 66 69 68 68 65 61 55 54 54 56 59 59 61 63 64 65 65 65 62 63 66 67 69 72 78
109 112 105 98 93 90 91 88 88 83 82 73 70 72 66 64 68 66 63 70 73 71 68 66 61 59 59 58 58 58 59 60 63 62 58 61 69 71 67 70 74 81 85
110 107 108 105 98 92 87 92 87 84 80 80 73 69 66 67 63 63 62 63 65 67 68 68 68 67 67 65 64 64 65 65 68 68 68 70 71 71 73 77 83 88 88
102 110 108 106 109 103 96 95 91 89 85 77 74 69 66 66 71 72 68 61 64 69 68 70 70 70 70 68 67 66 68 69 75 75 77 75 73 75 80 85 89 90 91
103 101 110 110 115 111 106 103 102 97 93 89 78 79 76 77 74 72 73 76 71 70 67 66 67 70 73 74 76 77 78 77 79 80 81 82 83 85 87 90 93 93 92
96 99 102 106 106 111 110 109 110 109 104 102 101 97 89 83 83 84 78 77 77 76 75 74 76 79 79 79 78 79 82 82 83 84 84 85 88 90 92 94 95 95 97
90 93 99 103 105 104 106 107 109 110 107 102 103 100 104 102 98 92 85 83 81 82 81 82 85 84 83 85 85 84 85 86 87 88 88 90 92 93 96 97 97 99 100
85 87 94 98 99 104 107 107 106 105 106 107 103 101 101 102 103 102 102 101 99 98 98 97 94 92 93 93 92 92 92 92 92 93 95 95 95 96 98 101 103 103 106
81 82 85 94 97 100 105 107 106 105 106 108 107 106 104 103 103 103 102 101 101 101 100 99 99 99 100 101 99 99 98 98 99 98 98 99 100 102 103 103 105 107 109
78 79 81 87 90 94 101 104 107 107 108 109 109 110 110 110 109 108 106 108 107 105 105 104 105 106 107 107 107 106 106 105 106 105 105 105 106 106 107 109 110 111 112
76 76 79 85 86 90 96 101 105 112 110 109 110 111 113 113 113 112 111 111 111 111 113 113 113 113 113 112 111 110 110 111 111 109 110 110 110 112 112 115 114 115 117
77 77 78 84 86 87 92 96 101 106 112 116 115 115 114 113 113 113 115 115 117 117 116 115 115 115 114 114 114 115 114 115 115 113 112 113 114 114 114 115 115 115 116
76 78 80 83 86 86 87 90 94 98 107 110 114 120 117 115 116 116 118 118 120 120 119 116 113 113 111 111 112 112 111 111 111 112 113 111 112 112 113 115 115 116 119
77 79 81 84 87 87 88 89 90 94 98 102 107 111 115 120 122 125 124 123 120 118 118 117 116 115 113 112 110 110 109 109 109 108 109 110 110 111 112 110 112 112 111
77 78 79 81 85 88 90 91 93 95 96 98 101 104 107 111 114 117 115 115 114 114 114 114 114 114 112 111 111 109 109 108 107 107 108 107 107 107 107 106 105 106 105
75 75 77 78 80 82 85 88 93 97 99 100 101 102 104 106 107 110 109 109 109 109 109 109 108 108 107 108 108 107 106 105 104 105 105 105 103 104 105 104 102 102 99
74 75 74 75 77 80 80 82 86 89 92 95 98 101 103 105 107 108 109 110 109 108 108 107 107 107 106 105 105 105 105 105 105 106 106 104 104 101 100 99 97 94 93
73 73 73 75 75 75 77 79 81 82 84 85 88 91 92 93 94 95 97 99 100 102 104 104 105 105 104 105 105 104 102 102 102 100 100 99 97 95 92 91 89 88 87
62 63 65 69 70 71 74 77 80 80 79 78 79 79 80 81 83 86 87 89 90 92 93 94 95 94 95 96 96 95 95 93 92 91 92 87 85 84 83 81 78 76 75
53 55 56 59 64 66 70 72 72 72 73 73 74 76 76 77 78 79 79 81 83 85 86 86 88 88 89 88 88 87 85 84 83 82 80 79 78 79 78 75 72 68 63
51 53 54 56 59 62 63 65 68 69 69 71 70 70 71 74 75 77 78 79 80 80 81 80 81 81 82 82 81 82 80 79 76 75 74 73 71 70 70 65 62 60 58
50 50 49 50 54 58 60 62 64 66 66 67 67 68 70 71 71 72 73 74 74 74 75 74 74 75 75 75 75 73 71 69 67 66 67 65 63 62 61 59 58 56 55
49 49 48 47 47 48 51 54 57 59 60 61 62 64 67 67 67 68 68 69 70 70 70 70 69 69 68 66 63 62 61 59 60 59 59 60 59 58 57 56 55 54 51
49 48 48 48 47 47 47 47 47 48 50 52 56 59 60 61 62 62 62 62 63 63 62 61 59 60 58 55 54 51 49 49 49 50 51 52 52 52 54 54 52 50 49
51 50 48 48 46 47 46 46 46 47 47 47 48 50 52 53 53 55 56 55 56 56 55 55 54 54 54 53 52 51 50 48 47 48 48 49 50 51 52 52 52 52 53
55 54 52 50 48 47 46 46 46 46 46 46 46 47 49 50 51 51 51 52 53 53 53 53 54 53 52 52 51 52 51 51 50 49 48 48 49 50 51 51 54 54 55
Wind_Direction
234 231 229 226 230 232 235 235 239 240 241 242 245 248 251 254 255 259 262 264 264 264 263 264 264 268 273 275 276 280 279 279 280 282 285 292 294 291 289 296 298 302 305
227 236 231 228 228 230 232 236 239 244 244 245 245 247 251 256 254 258 258 263 265 265 264 263 263 267 267 268 271 273 275 278 280 282 284 287 287 289 292 294 297 302 306
226 228 237 234 231 232 233 235 238 242 244 244 246 247 248 251 251 253 258 261 263 263 262 261 262 265 268 270 272 274 276 278 281 281 279 282 287 290 293 295 299 303 305
229 228 229 238 238 235 236 235 236 242 242 242 243 247 248 250 253 252 255 253 257 260 261 262 263 268 267 271 275 277 279 280 281 283 285 285 285 287 292 296 299 301 303
229 229 231 232 239 240 237 237 238 240 243 245 247 245 245 247 251 255 257 257 259 263 266 266 269 268 271 275 277 277 278 280 280 281 283 286 287 290 293 296 297 299 298
229 229 232 233 235 240 240 238 239 242 244 246 247 245 247 248 249 253 256 259 261 263 266 268 269 272 274 276 276 275 277 278 281 282 284 286 288 289 290 294 294 296 297
230 229 231 234 235 237 240 241 241 241 242 243 248 247 246 248 250 249 250 252 256 261 266 269 271 272 272 271 272 274 276 279 281 282 283 284 286 287 290 292 293 293 296
231 231 230 232 237 238 239 241 242 242 241 243 243 245 247 250 250 252 254 254 255 258 260 261 262 266 270 272 274 275 277 278 279 280 282 283 284 285 287 289 291 294 294
234 233 232 232 235 240 239 239 241 242 243 244 245 245 246 248 250 253 254 256 258 259 261 263 265 267 270 271 273 274 275 277 278 279 279 281 283 284 286 288 290 291 294
235 236 236 234 236 239 240 240 241 243 244 245 247 247 249 251 253 254 256 257 258 260 262 265 267 269 270 271 272 273 275 276 278 279 278 280 282 284 285 288 289 291 293
235 236 238 237 238 238 239 240 241 241 244 247 249 249 249 252 254 255 256 257 259 261 262 263 265 267 268 269 272 273 275 276 278 279 280 280 282 284 284 286 289 289 291
238 235 237 240 240 239 239 241 242 243 244 244 246 249 251 253 255 256 257 258 260 263 264 265 266 267 269 270 271 273 274 275 277 278 277 278 281 282 283 286 288 289 291
242 240 237 239 241 241 241 241 243 244 245 246 247 247 249 252 253 255 257 259 261 265 267 269 270 271 272 274 273 273 274 275 277 279 280 280 280 282 284 286 287 288 289
244 243 241 240 240 242 242 242 244 245 246 248 249 249 250 252 254 255 257 259 261 263 264 266 269 270 272 272 273 274 276 276 276 278 279 280 281 283 284 285 286 287 288
245 245 244 243 243 243 244 245 245 245 246 247 248 250 251 253 255 256 258 259 261 263 264 265 267 268 270 271 272 273 275 276 277 278 279 280 281 282 283 285 285 286 287
249 248 246 246 246 246 247 247 247 248 249 249 250 251 252 253 255 258 260 261 262 264 265 267 267 268 269 270 272 273 274 275 276 277 279 280 280 280 282 284 285 286 285
248 249 250 250 250 250 249 249 250 251 251 252 253 254 255 256 258 259 261 262 263 264 266 267 268 270 271 272 272 273 274 275 276 276 278 278 279 280 281 282 282 282 284
250 251 251 252 252 252 254 253 252 252 253 254 255 257 258 259 260 261 262 263 264 265 266 267 268 269 271 271 272 273 273 274 275 276 276 277 278 280 280 281 282 282 286
258 256 253 253 253 253 253 254 256 256 256 256 256 256 258 258 259 260 262 263 264 265 265 267 268 269 270 271 271 272 273 274 275 276 276 277 277 279 281 280 282 285 283
255 255 254 252 253 253 254 255 255 256 256 257 258 258 259 260 260 260 261 262 263 263 264 265 266 268 269 270 271 272 273 274 275 276 276 277 278 278 279 280 281 280 280
254 253 253 253 253 253 253 254 256 255 255 256 257 258 258 258 259 260 260 262 263 264 266 268 269 269 269 270 271 272 274 275 275 275 275 275 275 276 277 278 278 276 277
255 255 253 252 252 253 253 254 254 255 256 257 256 257 257 258 259 260 262 263 264 264 265 267 269 270 270 271 272 274 274 275 274 273 273 273 272 271 272 274 274 274 274
254 254 254 254 253 254 254 254 254 255 255 255 256 257 258 260 262 263 264 265 267 268 269 270 271 273 273 273 274 274 274 274 271 269 270 270 270 270 271 272 273 273 272
251 253 255 255 255 255 255 256 256 256 256 256 256 257 260 261 262 264 265 266 267 268 270 272 273 274 277 278 279 278 277 276 274 272 271 271 272 272 271 271 270 269 270
248 248 250 252 254 254 255 254 255 256 256 256 256 257 259 260 261 262 263 263 265 268 270 270 272 274 276 277 278 279 280 280 278 276 275 274 272 271 271 270 270 270 270
246 247 248 248 249 251 251 251 251 252 254 256 257 258 260 261 262 263 265 265 267 269 271 273 273 273 274 276 276 277 278 278 278 278 277 275 273 272 272 274 274 272 272
Height
10691 10707 10722 10733 10742 10752 10756 10763 10768 10776 10783 10789 10795 10796 10798 10802 10805 10807 10808 10806 10806 10806 10810 10810 10810 10810 10810 10810 10810 10810 10808 10805 10804 10800 10798 10794 10791 10787 10783 10777 10771 10768 10764
10684 10690 10706 10718 10726 10735 10742 10751 10757 10765 10770 10775 10780 10785 10788 10790 10793 10795 10793 10792 10793 10795 10796 10797 10800 10799 10798 10797 10798 10797 10795 10792 10789 10790 10788 10783 10775 10774 10772 10767 10762 10757 10752
10675 10685 10691 10703 10715 10724 10731 10738 10744 10750 10755 10761 10766 10772 10776 10779 10780 10781 10781 10781 10781 10780 10782 10784 10786 10788 10787 10786 10785 10785 10784 10782 10776 10776 10775 10774 10769 10763 10757 10755 10749 10743 10738
10666 10676 10685 10687 10698 10710 10718 10723 10729 10733 10741 10747 10753 10760 10761 10761 10760 10766 10769 10765 10761 10764 10769 10771 10773 10774 10774 10774 10773 10772 10772 10770 10764 10761 10760 10760 10758 10754 10748 10740 10737 10733 10727
10649 10659 10666 10676 10678 10691 10702 10707 10715 10722 10728 10734 10740 10743 10745 10747 10748 10751 10753 10752 10752 10754 10758 10759 10761 10760 10760 10760 10759 10759 10757 10755 10750 10748 10746 10745 10743 10739 10737 10731 10721 10720 10715
10632 10645 10651 10657 10667 10671 10682 10691 10699 10706 10712 10716 10720 10727 10728 10732 10734 10736 10738 10739 10740 10741 10742 10744 10745 10744 10745 10745 10743 10741 10740 10739 10738 10735 10734 10731 10727 10722 10719 10717 10709 10702 10699
10616 10629 10639 10644 10650 10654 10661 10670 10679 10687 10693 10697 10700 10707 10712 10715 10717 10719 10721 10723 10725 10725 10727 10729 10729 10729 10728 10727 10727 10727 10726 10723 10721 10720 10718 10715 10712 10709 10703 10698 10691 10685 10683
10602 10613 10622 10630 10631 10637 10642 10651 10659 10667 10673 10677 10684 10688 10694 10695 10698 10701 10704 10707 10708 10709 10709 10710 10710 10711 10710 10711 10711 10711 10709 10709 10706 10703 10702 10699 10696 10692 10687 10681 10675 10670 10661
10587 10597 10605 10612 10616 10618 10624 10632 10639 10647 10653 10658 10665 10669 10672 10675 10677 10681 10684 10687 10690 10690 10690 10691 10693 10694 10693 10693 10694 10693 10693 10694 10690 10687 10685 10682 10678 10673 10669 10664 10658 10653 10646
10573 10582 10589 10595 10601 10602 10606 10616 10623 10628 10633 10638 10644 10650 10653 10656 10660 10663 10667 10667 10670 10671 10671 10673 10673 10674 10674 10674 10675 10675 10674 10674 10671 10670 10666 10664 10661 10655 10650 10646 10640 10634 10627
10558 10566 10571 10574 10580 10585 10590 10598 10605 10610 10615 10620 10624 10628 10631 10636 10639 10642 10644 10646 10647 10648 10650 10652 10653 10654 10654 10654 10655 10656 10654 10652 10650 10651 10647 10644 10641 10636 10631 10625 10622 10614 10608
10538 10548 10554 10552 10559 10566 10572 10579 10586 10591 10595 10600 10602 10605 10610 10614 10618 10619 10619 10622 10624 10625 10627 10630 10631 10632 10634 10635 10637 10636 10634 10632 10629 10628 10626 10622 10619 10615 10610 10605 10599 10593 10586
10520 10527 10534 10536 10537 10546 10554 10560 10564 10568 10571 10575 10581 10587 10590 10593 10593 10596 10596 10598 10600 10604 10605 10608 10611 10611 10612 10613 10614 10611 10611 10609 10607 10605 10601 10599 10596 10593 10588 10583 10578 10572 10565
10500 10504 10511 10516 10518 10524 10532 10539 10543 10547 10550 10556 10561 10565 10567 10569 10572 10573 10575 10579 10582 10583 10583 10585 10586 10587 10587 10587 10589 10589 10588 10585 10583 10582 10578 10574 10572 10570 10566 10561 10556 10551 10545
10480 10484 10490 10496 10501 10506 10513 10518 10522 10525 10530 10533 10536 10540 10545 10546 10547 10548 10554 10556 10559 10559 10561 10562 10563 10564 10565 10565 10564 10564 10563 10562 10561 10559 10555 10552 10550 10547 10543 10539 10535 10529 10524
10461 10468 10473 10478 10481 10486 10491 10497 10500 10504 10508 10511 10515 10519 10522 10524 10526 10526 10531 10534 10537 10537 10538 10539 10539 10539 10540 10540 10540 10541 10540 10540 10537 10535 10533 10529 10527 10522 10520 10517 10514 10509 10503
10443 10448 10453 10458 10463 10465 10471 10474 10478 10481 10484 10489 10493 10497 10500 10503 10506 10508 10509 10511 10512 10514 10514 10515 10514 10514 10515 10516 10515 10515 10515 10513 10512 10510 10508 10505 10502 10500 10497 10494 10491 10487 10484
10427 10431 10436 10437 10443 10448 10450 10452 10455 10459 10463 10469 10472 10475 10479 10482 10484 10485 10485 10486 10488 10489 10489 10489 10490 10489 10490 10490 10488 10489 10489 10487 10486 10485 10484 10482 10480 10478 10475 10471 10470 10468 10466
10410 10413 10418 10421 10424 10427 10429 10431 10432 10438 10443 10447 10449 10454 10456 10459 10460 10461 10463 10463 10464 10465 10465 10466 10465 10466 10465 10464 10464 10464 10463 10463 10463 10462 10460 10459 10457 10455 10454 10453 10451 10448 10446
10392 10395 10399 10402 10402 10406 10406 10408 10413 10417 10420 10424 10428 10430 10434 10436 10436 10438 10440 10441 10441 10442 10442 10442 10442 10442 10442 10442 10442 10442 10442 10441 10441 10440 10439 10438 10438 10436 10434 10433 10432 10430 10428
10374 10377 10380 10383 10386 10387 10390 10393 10394 10396 10401 10403 10407 10410 10412 10413 10415 10417 10419 10420 10420 10421 10421 10422 10421 10421 10422 10422 10422 10421 10421 10420 10420 10418 10418 10417 10416 10416 10416 10414 10414 10413 10411
10358 10360 10363 10366 10369 10371 10373 10374 10376 10378 10381 10385 10388 10389 10391 10393 10395 10396 10399 10399 10400 10401 10401 10402 10402 10401 10402 10401 10401 10401 10400 10400 10400 10399 10398 10398 10398 10397 10398 10397 10397 10396 10395
10343 10345 10347 10349 10352 10355 10357 10358 10360 10362 10365 10367 10369 10371 10371 10374 10377 10377 10380 10381 10381 10382 10383 10383 10383 10382 10383 10382 10382 10382 10382 10381 10380 10380 10379 10379 10380 10380 10381 10381 10380 10380 10380
10327 10330 10332 10334 10337 10340 10342 10343 10345 10347 10348 10350 10352 10354 10356 10358 10359 10360 10361 10363 10364 10364 10365 10366 10365 10365 10365 10365 10364 10365 10365 10364 10363 10363 10363 10364 10364 10365 10365 10365 10365 10365 10365
10311 10314 10317 10320 10323 10325 10327 10329 10331 10332 10334 10336 10337 10339 10341 10342 10344 10345 10346 10347 10348 10349 10350 10350 10350 10350 10351 10350 10350 10349 10349 10349 10349 10348 10348 10349 10349 10350 10350 10350 10350 10351 10351
10295 10298 10301 10305 10308 10311 10312 10315 10317 10319 10320 10322 10323 10325 10326 10328 10329 10331 10332 10332 10334 10335 10335 10335 10335 10335 10337 10336 10336 10336 10335 10335 10335 10334 10335 10335 10335 10335 10335 10335 10335 10336 10335